CW2434 Weather Reports


Display with metric or nautical units.
time (UTC)temp
F
wind
direction
speed
MPH
gust
MPH
rain 1hr
in
rain 24hr
in
rain mn
in
humidity
%
barometer
mb
20260906231556 65 0 0.0 3.0 0.00 0.00 0.00 66 1016.6
20260906230104 66 9 0.0 5.0 0.00 0.00 0.00 64 1016.5
20260906224556 67 355 2.0 8.0 0.00 0.00 0.00 62 1016.2
20260906223101 67 355 2.0 9.0 0.00 0.00 0.00 60 1016.3
20260906221558 68 335 1.0 8.0 0.00 0.00 0.00 59 1016.0
20260906220055 69 11 3.0 10.0 0.00 0.00 0.00 59 1016.0
20260906214552 69 319 8.0 13.0 0.00 0.00 0.00 58 1016.1
20260906213056 70 15 7.0 12.0 0.00 0.00 0.00 55 1016.0
20260906211604 71 360 7.0 13.0 0.00 0.00 0.00 58 1015.9
20260906210106 71 53 7.0 14.0 0.00 0.00 0.00 58 1016.0
20260906204607 72 294 7.0 14.0 0.00 0.00 0.00 58 1015.7
20260906203102 71 322 5.0 10.0 0.00 0.00 0.00 58 1015.6
20260906201610 72 16 8.0 16.0 0.00 0.00 0.00 54 1015.7
20260906200100 72 352 6.0 15.0 0.00 0.00 0.00 60 1015.8
20260906194600 71 286 2.0 11.0 0.00 0.00 0.00 60 1015.5
20260906193103 71 32 8.0 17.0 0.00 0.00 0.00 58 1015.6
20260906191615 70 342 7.0 17.0 0.00 0.00 0.00 61 1015.7
20260906184559 71 340 6.0 16.0 0.00 0.00 0.00 59 1015.6
20260906183107 72 19 5.0 13.0 0.00 0.00 0.00 60 1015.7
20260906181559 71 17 4.0 13.0 0.00 0.00 0.00 59 1015.7
20260906180116 71 346 6.0 15.0 0.00 0.00 0.00 61 1015.6
20260906174603 70 349 4.0 11.0 0.00 0.00 0.00 64 1015.7
20260906173059 70 295 6.0 15.0 0.00 0.00 0.00 66 1015.7
20260906171603 70 320 4.0 15.0 0.00 0.00 0.00 65 1015.9
20260906170115 69 338 5.0 13.0 0.00 0.00 0.00 70 1015.9
20260906164602 69 16 4.0 15.0 0.00 0.00 0.00 68 1015.9
20260906163113 69 26 3.0 13.0 0.00 0.00 0.00 69 1015.9
20260906161603 69 28 5.0 12.0 0.00 0.00 0.00 71 1015.9
20260906160104 68 20 4.0 13.0 0.00 0.00 0.00 71 1016.0
20260906154556 68 302 5.0 14.0 0.00 0.00 0.00 75 1016.0
20260906153056 67 325 5.0 13.0 0.00 0.00 0.00 76 1016.1
20260906151557 67 58 4.0 11.0 0.00 0.00 0.00 78 1016.3
20260906150112 66 281 3.0 9.0 0.00 0.00 0.00 80 1016.3
20260906144601 66 337 3.0 10.0 0.00 0.00 0.00 79 1016.2
20260906143104 66 28 5.0 11.0 0.00 0.00 0.00 79 1016.3
20260906141601 65 337 2.0 8.0 0.00 0.00 0.00 84 1016.0
20260906134558 64 335 3.0 8.0 0.00 0.00 0.00 85 1016.1
20260906133133 64 339 2.0 10.0 0.00 0.00 0.00 85 1016.1
20260906131603 63 355 3.0 9.0 0.00 0.00 0.00 87 1015.9
20260906130108 63 344 3.0 13.0 0.00 0.00 0.00 87 1015.7
20260906124558 62 321 0.0 13.0 0.00 0.00 0.00 89 1015.7
20260906123105 62 355 4.0 10.0 0.00 0.00 0.00 89 1015.7
20260906121556 62 0 0.0 9.0 0.00 0.00 0.00 89 1015.7
20260906120059 62 0 1.0 7.0 0.00 0.00 0.00 89 1015.5
20260906114601 61 0 0.0 0.0 0.00 0.00 0.00 88 1015.3
20260906113104 61 0 0.0 2.0 0.00 0.00 0.00 89 1015.1
20260906111617 60 0 0.0 0.0 0.00 0.00 0.00 89 1015.3
20260906110058 60 0 0.0 0.0 0.00 0.00 0.00 89 1015.0
20260906104601 60 0 0.0 0.0 0.00 0.00 0.00 90 1014.8
20260906103059 60 0 0.0 0.0 0.00 0.00 0.00 90 1014.5
20260906101604 60 0 0.0 0.0 0.00 0.00 0.00 90 1014.3
20260906100058 60 0 0.0 0.0 0.00 0.00 0.00 89 1014.2
20260906094556 60 0 0.0 0.0 0.00 0.00 0.00 89 1014.1
20260906093054 60 0 0.0 0.0 0.00 0.00 0.00 88 1014.0
20260906091600 61 0 0.0 2.0 0.00 0.00 0.00 87 1013.9
20260906084601 61 0 0.0 6.0 0.00 0.00 0.00 87 1013.5
20260906083054 61 0 0.0 0.0 0.00 0.00 0.00 89 1013.7
20260906081600 60 0 0.0 4.0 0.00 0.00 0.00 90 1013.6
20260906080103 60 58 0.0 1.0 0.00 0.00 0.00 90 1013.5
20260906074559 60 0 0.0 0.0 0.00 0.00 0.00 89 1013.5
20260906073054 61 0 0.0 3.0 0.00 0.00 0.00 89 1013.4
20260906071600 61 0 0.0 4.0 0.00 0.00 0.00 88 1013.3
20260906070058 61 0 0.0 1.0 0.00 0.00 0.00 88 1013.5
20260906064557 61 0 0.0 0.0 0.00 0.00 0.00 88 1013.4
20260906063101 61 0 0.0 3.0 0.00 0.00 0.00 88 1013.3
20260906061559 61 0 0.0 3.0 0.00 0.00 0.00 88 1013.3
20260906060056 62 0 0.0 1.0 0.00 0.00 0.00 89 1013.5
20260906054605 62 0 0.0 0.0 0.00 0.00 0.00 88 1013.7
20260906053101 62 0 0.0 0.0 0.00 0.00 0.00 88 1013.6
20260906051611 62 0 0.0 1.0 0.00 0.00 0.00 87 1013.8
20260906050055 62 0 0.0 0.0 0.00 0.00 0.00 86 1013.7
20260906044607 62 0 0.0 0.0 0.00 0.00 0.00 85 1013.5
20260906043055 63 0 0.0 2.0 0.00 0.00 0.00 85 1013.5
20260906041554 63 0 0.0 3.0 0.00 0.00 0.00 84 1013.4
20260906040137 64 0 0.0 3.0 0.00 0.00 0.00 83 1013.3
20260906034605 64 0 0.0 5.0 0.00 0.00 0.00 82 1013.3
20260906033105 64 14 1.0 6.0 0.00 0.00 0.00 82 1013.2
20260906031600 65 0 2.0 8.0 0.00 0.00 0.00 82 1013.1
20260906030101 65 0 0.0 4.0 0.00 0.00 0.00 82 1013.0
20260906024610 65 19 0.0 3.0 0.00 0.00 0.00 82 1013.1
20260906023103 65 24 0.0 3.0 0.00 0.00 0.00 82 1013.2
20260906021556 65 0 0.0 3.0 0.00 0.00 0.00 81 1013.1
20260906014553 65 34 1.0 7.0 0.00 0.00 0.00 82 1013.1
20260906013100 65 0 0.0 4.0 0.00 0.00 0.00 82 1013.0
20260906011558 65 0 0.0 4.0 0.00 0.00 0.00 82 1012.9
20260906010058 66 342 1.0 5.0 0.00 0.00 0.00 81 1012.8
20260906004607 66 27 2.0 8.0 0.00 0.00 0.00 79 1012.4
20260906003100 67 5 2.0 7.0 0.00 0.00 0.00 78 1012.4
20260906001607 67 41 1.0 5.0 0.00 0.00 0.00 76 1012.2
20260906000056 68 331 1.0 5.0 0.00 0.00 0.00 75 1012.5
20260905234559 68 352 1.0 3.0 0.00 0.00 0.00 74 1012.3
20260905233101 69 352 0.0 4.0 0.00 0.00 0.00 73 1011.9